Location: Newark
(44.2886°N, 4.8431°E)
Time: 15:26:12
(UTC+00:00)

ZACube-1 - Pass Details

Date: 30 November 2020
Orbit: 584 x 665 km, 97.6° (Epoch: 14 January)

Event Time Altitude Azimuth Distance (km) Brightness Sun altitude
Rises 03:39:49 0° 35° (NE) 2,827 ? -34.3°
Reaches altitude 10° 03:43:30 10° 69° (ENE) 1,929 ? -33.7°
Maximum altitude 03:44:54 11° 89° (E) 1,837 ? -33.4°
Drops below altitude 10° 03:46:19 10° 109° (ESE) 1,935 ? -33.2°
Sets 03:50:00 0° 143° (SE) 2,848 ? -32.5°
